W5GED Weather Reports


time (UTC)temp
C
wind
direction
speed
KPH
gust
KPH
rain 1hr
cm
rain 24hr
cm
rain mn
cm
humidity
%
barometer
mb
20260906112538 26 64 1.6 3.2 0.00 1.19 0.00 94 1012.0
20260906111518 26 86 1.6 1.6 0.00 1.19 0.00 95 1012.0
20260906110518 26 32 1.6 3.2 0.00 1.19 0.00 95 1012.1
20260906105017 26 73 0.0 0.0 0.00 1.19 0.00 94 1012.0
20260906104017 26 343 0.0 1.6 0.00 1.19 0.00 94 1012.0
20260906103017 26 357 0.0 1.6 0.00 1.19 0.00 94 1012.0
20260906102017 26 180 0.0 1.6 0.00 1.19 0.00 93 1011.8
20260906101017 26 353 0.0 1.6 0.00 1.19 0.00 93 1011.8
20260906100017 26 53 0.0 1.6 0.00 1.19 0.00 93 1011.7
20260906095019 26 28 1.6 1.6 0.00 1.19 0.00 93 1011.7
20260906094037 26 352 0.0 1.6 0.00 1.19 0.00 93 1011.5
20260906093038 26 45 0.0 1.6 0.00 1.19 0.00 93 1011.5
20260906092058 26 19 1.6 1.6 0.00 1.19 0.00 92 1011.5
20260906091018 26 166 0.0 1.6 0.00 1.19 0.00 92 1011.5
20260906090018 26 44 0.0 1.6 0.00 1.19 0.00 92 1011.6
20260906084018 26 29 1.6 3.2 0.00 1.19 0.00 91 1011.4
20260906083019 26 29 1.6 3.2 0.00 1.19 0.00 91 1011.5
20260906081019 26 304 0.0 1.6 0.00 1.19 0.00 90 1011.5
20260906080019 27 88 0.0 1.6 0.00 1.19 0.00 90 1011.5
20260906074539 27 140 0.0 1.6 0.00 1.19 0.00 89 1011.6
20260906072519 27 181 0.0 3.2 0.00 1.19 0.00 89 1011.8
20260906071520 27 240 0.0 1.6 0.00 1.19 0.00 89 1011.8
20260906070520 27 200 0.0 1.6 0.00 1.19 0.00 89 1011.9
20260906065020 27 240 1.6 1.6 0.00 1.19 0.00 89 1012.1
20260906063520 27 238 1.6 3.2 0.00 1.19 0.00 88 1012.1
20260906062520 27 179 1.6 3.2 0.00 1.19 0.00 88 1012.0
20260906061520 27 165 3.2 4.8 0.00 1.19 0.00 88 1012.0
20260906060520 27 153 1.6 3.2 0.00 1.19 0.00 87 1012.0
20260906055520 27 308 0.0 0.0 0.00 1.19 0.00 87 1012.0
20260906054521 27 160 1.6 3.2 0.00 1.19 0.00 87 1011.9
20260906053521 27 144 1.6 4.8 0.00 1.19 0.00 86 1012.0
20260906052601 27 162 1.6 3.2 0.00 1.19 0.00 86 1012.0
20260906051521 27 166 3.2 4.8 0.00 1.19 0.00 85 1012.1
20260906050521 27 174 3.2 4.8 0.00 1.19 0.00 85 1012.1
20260906045521 27 168 3.2 4.8 0.00 1.19 1.19 85 1012.2
20260906044522 27 177 1.6 4.8 0.00 1.19 1.19 85 1012.2
20260906043522 27 179 1.6 4.8 0.00 1.19 1.19 85 1012.1
20260906042521 27 160 1.6 6.4 0.00 1.19 1.19 85 1012.1
20260906041522 27 173 3.2 4.8 0.00 1.19 1.19 85 1012.2
20260906040522 27 160 1.6 3.2 0.00 1.19 1.19 85 1012.2
20260906035522 27 162 1.6 4.8 0.00 1.19 1.19 85 1012.3
20260906034542 27 341 1.6 3.2 0.00 1.19 1.19 85 1012.3
20260906033543 27 196 1.6 3.2 0.00 1.19 1.19 86 1012.2
20260906032522 27 121 1.6 3.2 0.00 1.19 1.19 87 1012.2
20260906031522 27 23 0.0 1.6 0.00 1.19 1.19 87 1012.2
20260906030523 27 332 0.0 1.6 0.00 1.19 1.19 86 1012.1
20260906025523 27 174 0.0 1.6 0.00 1.19 1.19 85 1011.9
20260906024523 27 197 1.6 3.2 0.00 1.19 1.19 86 1011.9
20260906023603 28 59 1.6 3.2 0.00 1.19 1.19 85 1011.7
20260906022523 28 37 1.6 3.2 0.00 1.19 1.19 84 1011.6
20260906021524 28 195 1.6 3.2 0.00 1.19 1.19 83 1011.4
20260906020524 28 19 1.6 1.6 0.00 1.19 1.19 82 1011.2
20260906015544 28 64 1.6 3.2 0.00 1.19 1.19 82 1011.1
20260906014524 28 63 3.2 4.8 0.00 1.19 1.19 81 1011.0
20260906013524 28 39 1.6 3.2 0.00 1.19 1.19 80 1011.1
20260906012524 28 74 1.6 6.4 0.00 1.19 1.19 79 1011.0
20260906011524 28 54 1.6 3.2 0.00 1.19 1.19 80 1010.9
20260906010524 28 35 1.6 3.2 0.00 1.19 1.19 83 1010.9
20260906005525 28 16 1.6 3.2 0.00 1.19 1.19 85 1010.9
20260906004524 28 357 1.6 3.2 0.00 1.19 1.19 87 1011.0
20260906003525 28 0 1.6 3.2 0.00 1.19 1.19 87 1011.0
20260906002525 28 16 1.6 1.6 0.00 1.19 1.19 87 1011.1
20260906001525 28 349 0.0 1.6 0.00 1.19 1.19 86 1011.2
20260906000545 28 29 0.0 1.6 0.00 1.19 1.19 86 1011.2
20260905235525 28 353 1.6 3.2 0.00 1.19 1.19 85 1011.2
20260905234525 28 81 1.6 3.2 0.00 1.19 1.19 85 1011.2
20260905233526 28 26 1.6 3.2 0.00 1.19 1.19 84 1011.4
20260905232545 28 36 3.2 3.2 0.00 1.19 1.19 84 1011.4
20260905231546 28 19 1.6 3.2 0.00 1.19 1.19 85 1011.2
20260905230526 28 38 1.6 3.2 0.00 1.19 1.19 87 1011.2
20260905225546 27 30 1.6 3.2 0.00 1.19 1.19 88 1011.2
20260905224526 27 31 1.6 3.2 0.00 1.19 1.19 89 1011.0
20260905223517 27 41 1.6 3.2 0.00 1.19 1.19 89 1011.0
20260905222526 27 31 1.6 4.8 0.00 1.19 1.19 91 1011.0
20260905221607 27 173 0.0 3.2 0.03 1.19 1.19 91 1011.0
20260905220527 26 139 1.6 3.2 0.15 1.19 1.19 90 1011.1
20260905215527 26 222 1.6 1.6 0.25 1.19 1.19 90 1010.9
20260905214527 26 82 3.2 6.4 0.30 1.19 1.19 91 1011.0
20260905213547 26 104 3.2 6.4 0.30 1.19 1.19 91 1011.1
20260905212517 25 81 3.2 9.7 0.56 1.19 1.19 90 1011.4
20260905211517 26 70 4.8 14.5 1.17 1.17 1.17 87 1011.8
20260905210517 27 91 4.8 9.7 1.04 1.04 1.04 88 1011.8
20260905205517 28 104 4.8 12.9 0.94 0.94 0.94 84 1011.4
20260905204518 28 153 1.6 8.0 0.89 0.89 0.89 85 1011.4
20260905203518 28 198 4.8 14.5 0.89 0.89 0.89 86 1011.3
20260905202518 31 351 4.8 8.0 0.64 0.64 0.64 76 1011.5
20260905201518 32 190 4.8 11.3 0.00 0.00 0.00 62 1011.3
20260905200518 35 175 4.8 11.3 0.00 0.00 0.00 53 1011.4
20260905195518 36 205 3.2 11.3 0.00 0.00 0.00 48 1011.4
20260905194518 36 215 4.8 8.0 0.00 0.00 0.00 47 1011.5
20260905193519 36 55 4.8 11.3 0.00 0.00 0.00 48 1011.5
20260905192519 36 356 3.2 8.0 0.00 0.00 0.00 48 1011.6
20260905191519 35 41 3.2 11.3 0.00 0.03 0.00 50 1011.7
20260905190519 35 42 3.2 9.7 0.00 0.08 0.00 51 1011.9
20260905185516 35 24 4.8 14.5 0.00 0.13 0.00 52 1012.0
20260905184536 35 346 3.2 9.7 0.00 0.13 0.00 53 1012.1
20260905183519 36 25 3.2 9.7 0.00 0.13 0.00 50 1012.2
20260905182540 35 299 4.8 11.3 0.00 0.13 0.00 50 1012.4
20260905181517 35 344 4.8 11.3 0.00 0.13 0.00 53 1012.7
20260905180517 34 35 4.8 11.3 0.00 0.13 0.00 53 1012.9
20260905175517 34 41 4.8 11.3 0.00 0.13 0.00 53 1013.0
20260905174517 33 16 4.8 9.7 0.00 0.13 0.00 56 1013.2
20260905173517 33 7 4.8 14.5 0.00 0.13 0.00 56 1013.3
20260905172540 33 38 4.8 8.0 0.00 0.13 0.00 59 1013.4
20260905171537 33 288 3.2 9.7 0.00 0.13 0.00 56 1013.5
20260905170537 33 279 4.8 12.9 0.00 0.13 0.00 58 1013.5
20260905165518 34 279 4.8 14.5 0.00 0.13 0.00 55 1013.6
20260905164538 33 12 3.2 12.9 0.00 0.13 0.00 57 1013.7
20260905163518 32 16 3.2 9.7 0.00 0.15 0.00 58 1013.7
20260905162537 31 261 1.6 4.8 0.00 0.18 0.00 60 1013.8
20260905161518 31 256 0.0 3.2 0.00 0.64 0.00 65 1013.8
20260905160518 31 275 1.6 4.8 0.00 1.09 0.00 66 1013.7
20260905155518 31 270 1.6 4.8 0.00 1.09 0.00 67 1013.7
20260905154518 32 218 1.6 4.8 0.00 1.09 0.00 67 1013.8
20260905153519 32 256 1.6 4.8 0.00 1.09 0.00 65 1013.8
20260905152519 30 36 3.2 8.0 0.00 1.09 0.00 72 1013.8
20260905151539 31 133 3.2 6.4 0.00 1.09 0.00 70 1013.9
20260905150519 30 264 1.6 4.8 0.00 1.09 0.00 74 1013.9
20260905145516 30 294 4.8 8.0 0.00 1.09 0.00 74 1013.9
20260905144516 30 296 1.6 8.0 0.00 1.09 0.00 76 1013.8
20260905143519 30 264 1.6 4.8 0.00 1.09 0.00 80 1013.8
20260905142520 30 136 1.6 6.4 0.00 1.09 0.00 80 1013.8
20260905141519 30 207 1.6 4.8 0.00 1.09 0.00 79 1013.8
20260905140516 30 98 1.6 4.8 0.00 1.09 0.00 78 1013.7
20260905135537 30 349 1.6 4.8 0.00 1.09 0.00 81 1013.6
20260905134517 29 36 1.6 4.8 0.00 1.09 0.00 83 1013.6
20260905133517 28 35 1.6 3.2 0.00 1.09 0.00 86 1013.6
20260905132517 27 30 1.6 4.8 0.00 1.09 0.00 89 1013.6
20260905131518 27 40 3.2 6.4 0.00 1.09 0.00 92 1013.6
20260905130537 26 48 3.2 3.2 0.00 1.09 0.00 95 1013.5
20260905125521 25 64 1.6 3.2 0.00 1.09 0.00 97 1013.4
20260905124520 25 39 1.6 1.6 0.00 1.09 0.00 97 1013.3
20260905123520 25 53 0.0 1.6 0.00 1.09 0.00 97 1013.2
20260905122521 25 205 0.0 1.6 0.00 1.09 0.00 97 1013.1
20260905121521 25 48 1.6 1.6 0.00 1.09 0.00 97 1013.1
20260905120521 24 40 0.0 1.6 0.00 1.09 0.00 97 1012.9
20260905115521 24 0.0 0.0 0.00 1.09 0.00 97 1012.8
20260905114521 25 105 0.0 0.0 0.00 1.09 0.00 97 1012.7
20260905113521 25 231 0.0 1.6 0.00 1.09 0.00 97 1012.6